TimeMST,TemperatureF,Dew PointF,Humidity,Sea Level PressureIn,VisibilityMPH,Wind Direction,Wind SpeedMPH,Gust SpeedMPH,PrecipitationIn,Events,Conditions,WindDirDegrees,DateUTC
12:07 AM,27.0,25.0,92,29.95,1.0,Variable,5.8,-,N/A,,Overcast,0,2013-02-06 07:07:00
12:53 AM,25.0,23.0,92,30.02,0.5,North,3.5,-,N/A,Fog,Light Freezing Fog,10,2013-02-06 07:53:00
1:53 AM,26.1,25.0,96,30.02,1.0,Calm,Calm,-,N/A,,Overcast,0,2013-02-06 08:53:00
2:53 AM,28.0,26.1,92,30.02,2.0,South,3.5,-,N/A,,Overcast,170,2013-02-06 09:53:00
3:53 AM,28.0,26.1,92,30.02,2.0,Calm,Calm,-,N/A,,Overcast,0,2013-02-06 10:53:00
4:30 AM,28.0,26.1,92,29.98,1.5,Calm,Calm,-,N/A,,Overcast,0,2013-02-06 11:30:00
4:53 AM,28.9,26.1,89,30.03,2.0,NW,3.5,-,N/A,,Overcast,320,2013-02-06 11:53:00
5:53 AM,28.0,25.0,88,30.06,1.5,West,4.6,-,N/A,,Overcast,280,2013-02-06 12:53:00
6:53 AM,27.0,25.0,92,30.08,1.8,West,3.5,-,N/A,,Overcast,280,2013-02-06 13:53:00
7:06 AM,27.0,25.0,92,30.02,2.5,West,3.5,-,N/A,,Mostly Cloudy,260,2013-02-06 14:06:00
7:48 AM,28.4,24.8,86,30.05,0.8,WNW,4.6,-,N/A,,Overcast,300,2013-02-06 14:48:00
7:53 AM,28.0,25.0,88,30.11,0.2,WNW,5.8,-,N/A,,Overcast,290,2013-02-06 14:53:00
8:36 AM,26.1,25.0,96,30.07,0.5,West,8.1,-,N/A,,Overcast,270,2013-02-06 15:36:00
8:53 AM,26.1,25.0,96,30.14,0.5,WNW,3.5,-,N/A,,Overcast,300,2013-02-06 15:53:00
9:01 AM,26.1,25.0,96,30.08,0.5,West,3.5,-,N/A,,Overcast,280,2013-02-06 16:01:00
9:41 AM,28.0,26.1,92,30.10,0.2,Calm,Calm,-,N/A,,Overcast,0,2013-02-06 16:41:00
9:53 AM,27.0,26.1,96,30.18,0.2,Calm,Calm,-,N/A,,Overcast,0,2013-02-06 16:53:00
10:26 AM,28.0,26.1,92,30.10,0.2,SE,4.6,-,0.00,,Overcast,140,2013-02-06 17:26:00
10:53 AM,28.9,27.0,92,30.18,1.5,SW,3.5,-,0.00,,Mostly Cloudy,220,2013-02-06 17:53:00
11:53 AM,30.0,26.1,85,30.19,1.5,West,8.1,-,N/A,,Overcast,280,2013-02-06 18:53:00
12:22 PM,28.9,26.1,89,30.13,0.2,NW,8.1,-,N/A,,Overcast,320,2013-02-06 19:22:00
12:41 PM,30.0,27.0,88,30.13,0.2,NW,6.9,-,N/A,,Overcast,320,2013-02-06 19:41:00
12:53 PM,28.9,26.1,89,30.19,0.2,NW,9.2,-,N/A,,Overcast,320,2013-02-06 19:53:00
1:26 PM,30.0,27.0,88,30.11,0.5,NNW,3.5,-,N/A,,Overcast,340,2013-02-06 20:26:00
1:43 PM,30.9,27.0,85,30.11,0.5,Calm,Calm,-,N/A,,Overcast,0,2013-02-06 20:43:00
1:53 PM,30.9,27.0,85,30.15,0.5,Calm,Calm,-,N/A,,Mostly Cloudy,0,2013-02-06 20:53:00
2:35 PM,32.0,27.0,82,30.12,2.0,NW,6.9,-,N/A,,Haze,320,2013-02-06 21:35:00
2:53 PM,30.0,26.1,85,30.18,1.0,North,6.9,-,N/A,,Overcast,10,2013-02-06 21:53:00
3:33 PM,28.9,26.1,89,30.14,2.0,NW,4.6,-,N/A,,Overcast,310,2013-02-06 22:33:00
3:53 PM,28.9,26.1,89,30.19,2.0,West,4.6,-,N/A,,Overcast,280,2013-02-06 22:53:00
4:36 PM,28.9,26.1,89,30.14,0.5,North,3.5,-,N/A,,Overcast,360,2013-02-06 23:36:00
4:53 PM,28.0,25.0,88,30.20,0.5,Calm,Calm,-,N/A,,Overcast,0,2013-02-06 23:53:00
5:53 PM,27.0,25.0,92,30.23,0.5,North,4.6,-,N/A,,Overcast,10,2013-02-07 00:53:00
6:00 PM,26.1,25.0,96,30.17,0.2,NNE,3.5,-,N/A,Fog,Light Freezing Fog,20,2013-02-07 01:00:00
6:53 PM,26.1,25.0,96,30.26,0.2,NNE,3.5,-,N/A,Fog,Light Freezing Fog,20,2013-02-07 01:53:00
7:53 PM,26.1,25.0,96,30.27,0.1,South,3.5,-,N/A,Fog,Light Freezing Fog,180,2013-02-07 02:53:00
8:53 PM,26.1,25.0,96,30.27,0.2,SSE,4.6,-,N/A,,Overcast,160,2013-02-07 03:53:00
9:01 PM,26.1,25.0,96,30.19,0.5,SE,5.8,-,N/A,,Overcast,130,2013-02-07 04:01:00
9:23 PM,26.1,25.0,96,30.20,0.2,SSE,8.1,-,N/A,Fog,Light Freezing Fog,150,2013-02-07 04:23:00
9:53 PM,26.1,26.1,100,30.26,0.2,SE,6.9,-,N/A,Fog,Light Freezing Fog,140,2013-02-07 04:53:00
10:53 PM,26.1,25.0,96,30.26,0.2,Calm,Calm,-,N/A,Fog,Light Freezing Fog,0,2013-02-07 05:53:00
11:53 PM,26.1,24.1,92,30.26,0.2,ESE,4.6,-,0.00,Fog,Light Freezing Fog,120,2013-02-07 06:53:00